404 - Page Not Found

404

Error - Page Not Found


Please check the URL.

Otherwise, click here to be redirected to the homepage.

  • Currently

    Reported at Minneapolis, Minneapolis-St. Paul International Airport, MN
    1:53 PM CST FRI FEB 23 2018
  • 32°F0°C
  • Partly Cloudy
    Partly Cloudy
  • Feels Like:25°F-4°CDew Point:21°F-6°CHumidity:64% Winds:SSW 9 mph 14 kph
    Pressure:30.18 in1022 hPaVisibility:10.00 miles16090.00 meters
Time Weather Temp Dew Point
Humidity Winds Visibility Pressure Precipitation
1 hr 24 hr
Saturday, February 10
00:53 00:53 Mostly Clear Mostly Clear 2°F-17°C -4°F-20°C 76% SW 5 mphSW 7 kph 10.0 miles16.1 km 30.09 in1019 hPa 0.00 in0.00 mm --
23:53 23:53 Mostly Clear Mostly Clear 3°F-16°C -4°F-20°C 72% SSW 6 mphSSW 9 kph 10.0 miles16.1 km 30.09 in1019 hPa 0.00 in0.00 mm --
22:53 22:53 Mostly Clear Mostly Clear 4°F-16°C -4°F-20°C 69% SW 5 mphSW 7 kph 10.0 miles16.1 km 30.09 in1019 hPa 0.00 in0.00 mm --
21:53 21:53 Mostly Clear Mostly Clear 5°F-15°C -4°F-20°C 66% SW 5 mphSW 7 kph 10.0 miles16.1 km 30.12 in1020 hPa 0.00 in0.00 mm --
20:53 20:53 Clear Clear 6°F-14°C -3°F-19°C 66% WSW 3 mphWSW 6 kph 10.0 miles16.1 km 30.15 in1021 hPa 0.00 in0.00 mm --
19:53 19:53 Clear Clear 8°F-13°C -3°F-19°C 60% SW 7 mphSW 11 kph 10.0 miles16.1 km 30.15 in1021 hPa 0.00 in0.00 mm --
18:53 18:53 Clear Clear 10°F-12°C -2°F-19°C 58% WSW 8 mphWSW 13 kph 10.0 miles16.1 km 30.15 in1021 hPa 0.00 in0.00 mm --
17:53 17:53 Sunny Sunny 12°F-11°C -3°F-19°C 51% WSW 8 mphWSW 13 kph 10.0 miles16.1 km 30.18 in1022 hPa 0.00 in0.00 mm --
16:53 16:53 Sunny Sunny 13°F-11°C -2°F-19°C 51% SSW 10 mphSSW 17 kph 10.0 miles16.1 km 30.18 in1022 hPa 0.00 in0.00 mm --
15:53 15:53 Sunny Sunny 13°F-11°C -3°F-19°C 49% WSW 5 mphWSW 7 kph 10.0 miles16.1 km 30.18 in1022 hPa 0.00 in0.00 mm --
14:53 14:53 Sunny Sunny 13°F-11°C -2°F-19°C 51% W 8 mphW 13 kph 10.0 miles16.1 km 30.18 in1022 hPa 0.00 in0.00 mm --
13:53 13:53 Sunny Sunny 11°F-12°C -2°F-19°C 55% SW 8 mphSW 13 kph 10.0 miles16.1 km 30.21 in1023 hPa 0.00 in0.00 mm --
12:53 12:53 Sunny Sunny 9°F-13°C -3°F-19°C 58% WSW 8 mphWSW 13 kph 10.0 miles16.1 km 30.24 in1024 hPa 0.00 in0.00 mm --
11:53 11:53 Sunny Sunny 7°F-14°C -3°F-19°C 63% WSW 7 mphWSW 11 kph 10.0 miles16.1 km 30.27 in1025 hPa 0.00 in0.00 mm --
10:53 10:53 Sunny Sunny 4°F-16°C -4°F-20°C 69% W 6 mphW 9 kph 10.0 miles16.1 km 30.27 in1025 hPa 0.00 in0.00 mm --
09:53 09:53 Sunny Sunny 2°F-17°C -5°F-21°C 72% WNW 8 mphWNW 13 kph 10.0 miles16.1 km 30.27 in1025 hPa 0.00 in0.00 mm --
08:53 08:53 Mostly Sunny Mostly Sunny 0°F-18°C -5°F-21°C 79% W 6 mphW 9 kph 9.0 miles14.5 km 30.27 in1025 hPa 0.00 in0.00 mm --
07:53 07:53 Mostly Clear Mostly Clear 1°F-17°C -6°F-21°C 72% W 3 mphW 6 kph 10.0 miles16.1 km 30.27 in1025 hPa 0.00 in0.00 mm --
06:53 06:53 Mostly Clear Mostly Clear 2°F-17°C -4°F-20°C 76% W 8 mphW 13 kph 10.0 miles16.1 km 30.27 in1025 hPa 0.00 in0.00 mm --
05:53 05:53 Partly Cloudy Partly Cloudy 4°F-16°C -3°F-19°C 73% W 6 mphW 9 kph 10.0 miles16.1 km 30.27 in1025 hPa 0.00 in0.00 mm --
04:53 04:53 Cloudy Cloudy 4°F-16°C -3°F-19°C 73% W 5 mphW 7 kph 10.0 miles16.1 km 30.27 in1025 hPa 0.00 in0.00 mm --
03:53 03:53 Cloudy Cloudy 5°F-15°C -3°F-19°C 69% W 6 mphW 9 kph 10.0 miles16.1 km 30.3 in1026 hPa 0.00 in0.00 mm --
02:53 02:53 Cloudy Cloudy 5°F-15°C -3°F-19°C 69% W 6 mphW 9 kph 10.0 miles16.1 km 30.3 in1026 hPa 0.00 in0.00 mm --
01:53 01:53 Cloudy Cloudy 5°F-15°C -4°F-20°C 66% WNW 7 mphWNW 11 kph 10.0 miles16.1 km 30.33 in1027 hPa 0.00 in0.00 mm --
404 - Page Not Found

404

Error - Page Not Found


Please check the URL.

Otherwise, click here to be redirected to the homepage.